| time (UTC) | temp F | wind direction | speed knots | gust knots | rain 1hr in | rain 24hr in | rain mn in | humidity % | barometer mb |
| 20260506025004 | 76 | 172 | 0.0 | 3.5 | 0.00 | 0.00 | 0.00 | 83 | 1007.3 |
| 20260506024515 | 76 | 172 | 0.0 | 4.3 | 0.00 | 0.00 | 0.00 | 83 | 1007.2 |
| 20260506024011 | 76 | 174 | 0.0 | 4.3 | 0.00 | 0.00 | 0.00 | 83 | 1007.1 |
| 20260506023504 | 76 | 173 | 0.0 | 2.6 | 0.00 | 0.00 | 0.00 | 82 | 1007.0 |
| 20260506023012 | 76 | 169 | 0.0 | 4.3 | 0.00 | 0.00 | 0.00 | 82 | 1006.9 |
| 20260506022503 | 77 | 169 | 0.0 | 4.3 | 0.00 | 0.00 | 0.00 | 82 | 1006.9 |
| 20260506022004 | 77 | 148 | 0.9 | 3.5 | 0.00 | 0.00 | 0.00 | 82 | 1006.8 |
| 20260506021503 | 77 | 156 | 0.0 | 5.2 | 0.00 | 0.00 | 0.00 | 81 | 1006.8 |
| 20260506021009 | 77 | 157 | 0.9 | 5.2 | 0.00 | 0.00 | 0.00 | 81 | 1006.7 |
| 20260506020510 | 77 | 141 | 0.0 | 2.6 | 0.00 | 0.00 | 0.00 | 81 | 1006.6 |
| 20260506020006 | 77 | 143 | 0.9 | 2.6 | 0.00 | 0.00 | 0.00 | 81 | 1006.6 |
| 20260506015503 | 77 | 144 | 0.9 | 2.6 | 0.00 | 0.00 | 0.00 | 81 | 1006.7 |
| 20260506015003 | 77 | 144 | 0.0 | 3.5 | 0.00 | 0.00 | 0.00 | 81 | 1006.6 |
| 20260506014514 | 77 | 144 | 0.9 | 3.5 | 0.00 | 0.00 | 0.00 | 80 | 1006.4 |
| 20260506014007 | 77 | 179 | 0.0 | 3.5 | 0.00 | 0.00 | 0.00 | 80 | 1006.3 |
| 20260506013503 | 78 | 146 | 0.0 | 3.5 | 0.00 | 0.00 | 0.00 | 79 | 1006.3 |
| 20260506013014 | 78 | 136 | 0.9 | 3.5 | 0.00 | 0.00 | 0.00 | 79 | 1006.3 |
| 20260506012507 | 78 | 155 | 0.9 | 3.5 | 0.00 | 0.00 | 0.00 | 78 | 1006.2 |
| 20260506012008 | 78 | 156 | 0.9 | 3.5 | 0.00 | 0.00 | 0.00 | 78 | 1006.3 |
| 20260506011531 | 78 | 158 | 0.9 | 4.3 | 0.00 | 0.00 | 0.00 | 77 | 1006.2 |
| 20260506011005 | 78 | 191 | 0.9 | 4.3 | 0.00 | 0.00 | 0.00 | 77 | 1006.1 |
| 20260506010502 | 79 | 140 | 0.0 | 5.2 | 0.00 | 0.00 | 0.00 | 76 | 1006.1 |
| 20260506010007 | 79 | 140 | 1.7 | 5.2 | 0.00 | 0.00 | 0.00 | 76 | 1006.1 |
| 20260506005503 | 79 | 143 | 0.9 | 4.3 | 0.00 | 0.00 | 0.00 | 76 | 1006.1 |
| 20260506005007 | 80 | 139 | 0.9 | 4.3 | 0.00 | 0.00 | 0.00 | 75 | 1006.1 |
| 20260506004516 | 80 | 141 | 0.9 | 4.3 | 0.00 | 0.00 | 0.00 | 75 | 1006.1 |
| 20260506004007 | 80 | 152 | 0.9 | 3.5 | 0.00 | 0.00 | 0.00 | 75 | 1006.2 |
| 20260506003505 | 80 | 154 | 0.9 | 5.2 | 0.00 | 0.00 | 0.00 | 75 | 1006.3 |
| 20260506003012 | 80 | 156 | 1.7 | 5.2 | 0.00 | 0.00 | 0.00 | 74 | 1006.3 |
| 20260506002507 | 80 | 157 | 1.7 | 5.2 | 0.00 | 0.00 | 0.00 | 74 | 1006.4 |
| 20260506002005 | 80 | 124 | 0.9 | 4.3 | 0.00 | 0.00 | 0.00 | 75 | 1006.4 |
| 20260506001514 | 81 | 176 | 1.7 | 4.3 | 0.00 | 0.00 | 0.00 | 74 | 1006.4 |
| 20260506001008 | 81 | 134 | 1.7 | 4.3 | 0.00 | 0.00 | 0.00 | 74 | 1006.3 |
| 20260506000505 | 81 | 147 | 0.0 | 4.3 | 0.00 | 0.00 | 0.00 | 74 | 1006.3 |
| 20260506000020 | 81 | 148 | 1.7 | 5.2 | 0.00 | 0.00 | 0.00 | 72 | 1006.4 |
| 20260505235502 | 81 | 158 | 0.0 | 5.2 | 0.00 | 0.00 | 0.00 | 73 | 1006.4 |
| 20260505235003 | 81 | 168 | 0.9 | 4.3 | 0.00 | 0.00 | 0.00 | 73 | 1006.4 |
| 20260505234509 | 81 | 181 | 0.9 | 4.3 | 0.00 | 0.00 | 0.00 | 72 | 1006.5 |
| 20260505234007 | 81 | 159 | 0.9 | 4.3 | 0.00 | 0.00 | 0.00 | 72 | 1006.4 |
| 20260505233504 | 81 | 102 | 0.9 | 6.1 | 0.00 | 0.00 | 0.00 | 71 | 1006.4 |
| 20260505233022 | 81 | 117 | 1.7 | 6.1 | 0.00 | 0.00 | 0.00 | 71 | 1006.4 |
| 20260505232505 | 82 | 201 | 1.7 | 5.2 | 0.00 | 0.00 | 0.00 | 71 | 1006.3 |
| 20260505232010 | 82 | 163 | 1.7 | 6.1 | 0.00 | 0.00 | 0.00 | 71 | 1006.2 |
| 20260505231516 | 82 | 186 | 1.7 | 6.1 | 0.00 | 0.00 | 0.00 | 71 | 1006.1 |
| 20260505231004 | 82 | 176 | 1.7 | 7.8 | 0.00 | 0.00 | 0.00 | 71 | 1006.1 |
| 20260505230505 | 82 | 128 | 1.7 | 7.8 | 0.00 | 0.00 | 0.00 | 71 | 1006.0 |
| 20260505230021 | 82 | 138 | 1.7 | 7.0 | 0.00 | 0.00 | 0.00 | 71 | 1006.1 |
| 20260505225507 | 82 | 167 | 1.7 | 7.0 | 0.00 | 0.00 | 0.00 | 71 | 1006.0 |
| 20260505225007 | 82 | 145 | 1.7 | 6.1 | 0.00 | 0.00 | 0.00 | 70 | 1005.9 |
| 20260505224524 | 82 | 86 | 1.7 | 6.1 | 0.00 | 0.00 | 0.00 | 71 | 1005.9 |
| 20260505224002 | 82 | 172 | 0.9 | 6.1 | 0.00 | 0.00 | 0.00 | 72 | 1006.0 |
| 20260505223505 | 82 | 93 | 2.6 | 6.1 | 0.00 | 0.00 | 0.00 | 71 | 1006.1 |
| 20260505223016 | 82 | 150 | 2.6 | 7.0 | 0.00 | 0.00 | 0.00 | 71 | 1006.1 |
| 20260505222503 | 82 | 90 | 1.7 | 7.0 | 0.00 | 0.00 | 0.00 | 71 | 1006.0 |
| 20260505222012 | 82 | 175 | 1.7 | 9.6 | 0.00 | 0.00 | 0.00 | 72 | 1006.0 |
| 20260505221510 | 82 | 203 | 2.6 | 9.6 | 0.00 | 0.00 | 0.00 | 71 | 1005.9 |
| 20260505221006 | 82 | 147 | 2.6 | 9.6 | 0.00 | 0.00 | 0.00 | 71 | 1005.9 |
| 20260505220507 | 82 | 224 | 1.7 | 8.7 | 0.00 | 0.00 | 0.00 | 71 | 1006.0 |
| 20260505220036 | 82 | 171 | 1.7 | 11.3 | 0.00 | 0.00 | 0.00 | 70 | 1006.0 |
| 20260505215510 | 83 | 185 | 2.6 | 11.3 | 0.00 | 0.00 | 0.00 | 70 | 1006.1 |
| 20260505215005 | 84 | 141 | 2.6 | 8.7 | 0.00 | 0.00 | 0.00 | 69 | 1006.1 |
| 20260505214528 | 83 | 213 | 1.7 | 8.7 | 0.00 | 0.00 | 0.00 | 71 | 1006.1 |
| 20260505214007 | 83 | 217 | 3.5 | 8.7 | 0.00 | 0.00 | 0.00 | 69 | 1006.1 |
| 20260505213508 | 83 | 127 | 2.6 | 7.0 | 0.00 | 0.00 | 0.00 | 69 | 1006.1 |
| 20260505213029 | 83 | 113 | 1.7 | 7.0 | 0.00 | 0.00 | 0.00 | 69 | 1006.2 |
| 20260505212505 | 83 | 170 | 1.7 | 7.8 | 0.00 | 0.00 | 0.00 | 70 | 1006.4 |
| 20260505212004 | 83 | 148 | 1.7 | 7.8 | 0.00 | 0.00 | 0.00 | 69 | 1006.5 |
| 20260505211508 | 84 | 175 | 1.7 | 7.0 | 0.00 | 0.00 | 0.00 | 70 | 1006.5 |
| 20260505211007 | 83 | 106 | 2.6 | 7.0 | 0.00 | 0.00 | 0.00 | 70 | 1006.6 |
| 20260505210503 | 84 | 86 | 2.6 | 7.0 | 0.00 | 0.00 | 0.00 | 69 | 1006.7 |
| 20260505210017 | 84 | 187 | 1.7 | 7.8 | 0.00 | 0.00 | 0.00 | 68 | 1006.8 |
| 20260505205513 | 84 | 181 | 1.7 | 7.8 | 0.00 | 0.00 | 0.00 | 70 | 1006.7 |
| 20260505205009 | 84 | 163 | 1.7 | 7.8 | 0.00 | 0.00 | 0.00 | 69 | 1006.8 |
| 20260505204519 | 84 | 148 | 1.7 | 7.8 | 0.00 | 0.00 | 0.00 | 70 | 1006.9 |
| 20260505204008 | 84 | 129 | 2.6 | 7.8 | 0.00 | 0.00 | 0.00 | 70 | 1006.9 |
| 20260505203511 | 84 | 59 | 2.6 | 8.7 | 0.00 | 0.00 | 0.00 | 70 | 1006.8 |
| 20260505203012 | 83 | 200 | 1.7 | 8.7 | 0.00 | 0.00 | 0.00 | 70 | 1007.1 |
| 20260505202509 | 84 | 100 | 3.5 | 8.7 | 0.00 | 0.00 | 0.00 | 68 | 1007.0 |
| 20260505202008 | 85 | 148 | 1.7 | 7.0 | 0.00 | 0.00 | 0.00 | 67 | 1007.2 |
| 20260505201512 | 85 | 193 | 1.7 | 7.0 | 0.00 | 0.00 | 0.00 | 66 | 1007.3 |
| 20260505201007 | 84 | 171 | 1.7 | 7.8 | 0.00 | 0.00 | 0.00 | 67 | 1007.3 |
| 20260505200507 | 83 | 167 | 2.6 | 9.6 | 0.00 | 0.00 | 0.00 | 67 | 1007.4 |
| 20260505200012 | 83 | 168 | 2.6 | 9.6 | 0.00 | 0.00 | 0.00 | 68 | 1007.5 |
| 20260505195509 | 84 | 202 | 3.5 | 9.6 | 0.00 | 0.00 | 0.00 | 67 | 1007.4 |
| 20260505195004 | 84 | 138 | 3.5 | 9.6 | 0.00 | 0.00 | 0.00 | 68 | 1007.4 |
| 20260505194519 | 83 | 210 | 2.6 | 7.8 | 0.00 | 0.00 | 0.00 | 69 | 1007.6 |
| 20260505194012 | 83 | 148 | 2.6 | 7.0 | 0.00 | 0.00 | 0.00 | 68 | 1007.6 |
| 20260505193509 | 83 | 166 | 2.6 | 9.6 | 0.00 | 0.00 | 0.00 | 70 | 1007.7 |
| 20260505193020 | 83 | 214 | 3.5 | 9.6 | 0.00 | 0.00 | 0.00 | 70 | 1007.6 |
| 20260505192509 | 83 | 207 | 3.5 | 9.6 | 0.00 | 0.00 | 0.00 | 68 | 1007.7 |
| 20260505192010 | 82 | 160 | 2.6 | 10.4 | 0.00 | 0.00 | 0.00 | 69 | 1007.7 |
| 20260505191517 | 82 | 167 | 1.7 | 12.2 | 0.00 | 0.00 | 0.00 | 69 | 1007.7 |
| 20260505191009 | 82 | 215 | 2.6 | 12.2 | 0.00 | 0.00 | 0.00 | 69 | 1007.7 |
| 20260505190512 | 83 | 187 | 2.6 | 9.6 | 0.00 | 0.00 | 0.00 | 69 | 1007.8 |
| 20260505190015 | 82 | 184 | 2.6 | 9.6 | 0.00 | 0.00 | 0.00 | 72 | 1007.9 |
| 20260505185510 | 82 | 133 | 2.6 | 10.4 | 0.00 | 0.00 | 0.00 | 70 | 1007.9 |
| 20260505185007 | 82 | 152 | 2.6 | 10.4 | 0.00 | 0.00 | 0.00 | 70 | 1008.0 |
| 20260505184514 | 82 | 195 | 2.6 | 9.6 | 0.00 | 0.00 | 0.00 | 71 | 1008.0 |
| 20260505184008 | 82 | 167 | 1.7 | 10.4 | 0.00 | 0.00 | 0.00 | 75 | 1008.1 |
| 20260505183508 | 81 | 219 | 2.6 | 10.4 | 0.00 | 0.00 | 0.00 | 74 | 1008.3 |
| 20260505183019 | 81 | 169 | 2.6 | 9.6 | 0.00 | 0.00 | 0.00 | 71 | 1008.4 |
| 20260505182508 | 81 | 197 | 2.6 | 9.6 | 0.00 | 0.00 | 0.00 | 72 | 1008.6 |
| 20260505182011 | 81 | 155 | 1.7 | 11.3 | 0.00 | 0.00 | 0.00 | 72 | 1008.6 |
| 20260505181515 | 81 | 245 | 2.6 | 13.0 | 0.00 | 0.00 | 0.00 | 72 | 1008.7 |
| 20260505181014 | 80 | 166 | 2.6 | 13.0 | 0.00 | 0.00 | 0.00 | 73 | 1008.7 |
| 20260505180507 | 80 | 222 | 3.5 | 8.7 | 0.00 | 0.00 | 0.00 | 73 | 1008.6 |
| 20260505180024 | 79 | 128 | 2.6 | 11.3 | 0.00 | 0.00 | 0.00 | 76 | 1008.6 |
| 20260505175510 | 78 | 171 | 3.5 | 11.3 | 0.00 | 0.00 | 0.00 | 75 | 1008.7 |
| 20260505175010 | 78 | 109 | 4.3 | 11.3 | 0.00 | 0.00 | 0.00 | 76 | 1008.9 |
| 20260505174520 | 77 | 176 | 0.9 | 10.4 | 0.00 | 0.00 | 0.00 | 78 | 1008.9 |
| 20260505174010 | 76 | 210 | 4.3 | 10.4 | 0.00 | 0.00 | 0.00 | 78 | 1008.9 |
| 20260505173511 | 77 | 217 | 2.6 | 12.2 | 0.00 | 0.00 | 0.00 | 78 | 1009.0 |
| 20260505173017 | 77 | 154 | 1.7 | 12.2 | 0.00 | 0.00 | 0.00 | 80 | 1008.9 |
| 20260505172512 | 76 | 236 | 2.6 | 10.4 | 0.00 | 0.00 | 0.00 | 79 | 1008.9 |
| 20260505172007 | 76 | 198 | 3.5 | 9.6 | 0.00 | 0.00 | 0.00 | 79 | 1008.8 |
| 20260505171522 | 76 | 167 | 1.7 | 9.6 | 0.00 | 0.00 | 0.00 | 80 | 1008.9 |
| 20260505171009 | 76 | 181 | 4.3 | 9.6 | 0.00 | 0.00 | 0.00 | 80 | 1008.9 |
| 20260505170507 | 76 | 224 | 3.5 | 8.7 | 0.00 | 0.00 | 0.00 | 81 | 1008.9 |
| 20260505170026 | 75 | 192 | 1.7 | 8.7 | 0.00 | 0.00 | 0.00 | 82 | 1009.0 |
| 20260505165508 | 75 | 172 | 2.6 | 10.4 | 0.00 | 0.00 | 0.00 | 83 | 1009.0 |
| 20260505165005 | 74 | 161 | 4.3 | 10.4 | 0.00 | 0.00 | 0.00 | 82 | 1008.9 |
| 20260505164524 | 74 | 164 | 3.5 | 7.8 | 0.00 | 0.00 | 0.00 | 83 | 1008.9 |
| 20260505164011 | 74 | 220 | 1.7 | 7.0 | 0.00 | 0.00 | 0.00 | 83 | 1008.9 |
| 20260505163508 | 74 | 195 | 2.6 | 7.0 | 0.00 | 0.00 | 0.00 | 83 | 1009.0 |
| 20260505163022 | 74 | 168 | 1.7 | 7.0 | 0.00 | 0.00 | 0.00 | 83 | 1009.0 |
| 20260505162507 | 73 | 197 | 2.6 | 7.0 | 0.00 | 0.00 | 0.00 | 84 | 1009.0 |
| 20260505162011 | 73 | 181 | 2.6 | 6.1 | 0.00 | 0.00 | 0.00 | 84 | 1009.1 |
| 20260505161518 | 73 | 188 | 2.6 | 9.6 | 0.00 | 0.00 | 0.00 | 84 | 1009.0 |
| 20260505161010 | 73 | 184 | 2.6 | 11.3 | 0.00 | 0.00 | 0.00 | 84 | 1009.0 |
| 20260505160508 | 73 | 202 | 1.7 | 11.3 | 0.00 | 0.00 | 0.00 | 84 | 1008.9 |
| 20260505153025 | 72 | 186 | 2.6 | 9.6 | 0.00 | 0.00 | 0.00 | 86 | 1009.0 |
| 20260505152512 | 71 | 178 | 2.6 | 9.6 | 0.00 | 0.00 | 0.00 | 86 | 1009.0 |
| 20260505152010 | 71 | 175 | 1.7 | 9.6 | 0.00 | 0.00 | 0.00 | 87 | 1009.0 |
| 20260505151528 | 71 | 212 | 2.6 | 7.8 | 0.00 | 0.00 | 0.00 | 87 | 1009.1 |
| 20260505151011 | 71 | 199 | 2.6 | 8.7 | 0.00 | 0.00 | 0.00 | 87 | 1009.0 |
| 20260505150513 | 71 | 105 | 1.7 | 8.7 | 0.00 | 0.00 | 0.00 | 87 | 1008.9 |
| 20260505140509 | 70 | 185 | 3.5 | 8.7 | 0.00 | 0.00 | 0.00 | 87 | 1008.3 |
| 20260505125013 | 70 | 200 | 1.7 | 7.8 | 0.00 | 0.00 | 0.00 | 88 | 1007.8 |
| 20260505124539 | 70 | 184 | 1.7 | 7.8 | 0.00 | 0.00 | 0.00 | 88 | 1007.8 |
| 20260505124013 | 70 | 209 | 2.6 | 8.7 | 0.00 | 0.00 | 0.00 | 88 | 1007.7 |
| 20260505123511 | 69 | 210 | 2.6 | 9.6 | 0.00 | 0.00 | 0.00 | 88 | 1007.5 |
| 20260505123024 | 69 | 153 | 3.5 | 11.3 | 0.00 | 0.00 | 0.00 | 88 | 1007.5 |
| 20260505122512 | 69 | 182 | 0.9 | 11.3 | 0.00 | 0.00 | 0.00 | 88 | 1007.3 |
| 20260505122015 | 69 | 153 | 2.6 | 6.1 | 0.00 | 0.00 | 0.00 | 88 | 1007.2 |
| 20260505121506 | 69 | 179 | 1.7 | 7.8 | 0.00 | 0.00 | 0.00 | 88 | 1007.1 |
| 20260505121006 | 69 | 176 | 1.7 | 7.8 | 0.00 | 0.00 | 0.00 | 88 | 1007.1 |
| 20260505120506 | 69 | 188 | 1.7 | 7.8 | 0.00 | 0.00 | 0.00 | 88 | 1007.1 |
| 20260505120012 | 69 | 191 | 2.6 | 7.8 | 0.00 | 0.00 | 0.00 | 88 | 1007.0 |
| 20260505115506 | 69 | 184 | 1.7 | 4.3 | 0.00 | 0.00 | 0.00 | 88 | 1007.0 |
| 20260505115009 | 69 | 146 | 0.9 | 4.3 | 0.00 | 0.00 | 0.00 | 88 | 1006.9 |
| 20260505114511 | 69 | 162 | 0.9 | 8.7 | 0.00 | 0.00 | 0.00 | 87 | 1006.8 |
| 20260505114007 | 69 | 171 | 0.9 | 8.7 | 0.00 | 0.00 | 0.00 | 87 | 1006.8 |
| 20260505113507 | 69 | 234 | 1.7 | 9.6 | 0.00 | 0.00 | 0.00 | 87 | 1006.8 |
| 20260505113010 | 69 | 163 | 1.7 | 9.6 | 0.00 | 0.00 | 0.00 | 87 | 1006.9 |
| 20260505112507 | 70 | 172 | 1.7 | 6.1 | 0.00 | 0.00 | 0.00 | 87 | 1006.9 |
| 20260505112007 | 69 | 198 | 1.7 | 14.8 | 0.00 | 0.00 | 0.00 | 87 | 1006.8 |
| 20260505111512 | 69 | 198 | 4.3 | 14.8 | 0.00 | 0.00 | 0.00 | 87 | 1006.7 |
| 20260505111006 | 70 | 146 | 2.6 | 8.7 | 0.00 | 0.00 | 0.00 | 87 | 1006.7 |
| 20260505110509 | 70 | 169 | 1.7 | 8.7 | 0.00 | 0.00 | 0.00 | 86 | 1006.7 |
| 20260505102008 | 69 | 210 | 1.7 | 9.6 | 0.00 | 0.00 | 0.00 | 86 | 1007.1 |
| 20260505101512 | 69 | 242 | 1.7 | 9.6 | 0.00 | 0.00 | 0.00 | 86 | 1007.1 |
| 20260505101004 | 69 | 189 | 2.6 | 9.6 | 0.00 | 0.00 | 0.00 | 86 | 1007.1 |
| 20260505100507 | 69 | 176 | 1.7 | 10.4 | 0.00 | 0.00 | 0.00 | 86 | 1007.0 |
| 20260505100020 | 69 | 179 | 2.6 | 10.4 | 0.00 | 0.00 | 0.00 | 86 | 1007.4 |
| 20260505095507 | 69 | 185 | 0.9 | 6.1 | 0.00 | 0.00 | 0.00 | 86 | 1007.4 |
| 20260505095007 | 69 | 179 | 1.7 | 6.1 | 0.00 | 0.00 | 0.00 | 86 | 1007.3 |
| 20260505094513 | 70 | 176 | 1.7 | 6.1 | 0.00 | 0.00 | 0.00 | 86 | 1007.2 |
| 20260505094008 | 70 | 131 | 0.9 | 7.8 | 0.00 | 0.00 | 0.00 | 86 | 1007.3 |
| 20260505093505 | 69 | 182 | 1.7 | 7.8 | 0.00 | 0.00 | 0.00 | 86 | 1007.3 |
| 20260505093016 | 70 | 123 | 2.6 | 7.8 | 0.00 | 0.00 | 0.00 | 86 | 1007.4 |
| 20260505092514 | 70 | 179 | 2.6 | 7.8 | 0.00 | 0.00 | 0.00 | 86 | 1007.4 |
| 20260505092009 | 70 | 206 | 2.6 | 7.0 | 0.00 | 0.00 | 0.00 | 86 | 1007.4 |
| 20260505091507 | 70 | 184 | 2.6 | 6.1 | 0.00 | 0.00 | 0.00 | 86 | 1007.4 |
| 20260505091004 | 70 | 169 | 0.9 | 6.1 | 0.00 | 0.00 | 0.00 | 86 | 1007.5 |
| 20260505090504 | 70 | 112 | 1.7 | 7.0 | 0.00 | 0.00 | 0.00 | 86 | 1007.5 |
| 20260505090007 | 70 | 189 | 2.6 | 10.4 | 0.00 | 0.00 | 0.00 | 85 | 1007.5 |
| 20260505085504 | 70 | 197 | 1.7 | 10.4 | 0.00 | 0.00 | 0.00 | 86 | 1007.4 |
| 20260505085004 | 70 | 172 | 3.5 | 9.6 | 0.00 | 0.00 | 0.00 | 85 | 1007.6 |
| 20260505084527 | 70 | 215 | 2.6 | 12.2 | 0.00 | 0.00 | 0.00 | 85 | 1007.7 |
| 20260505084002 | 70 | 190 | 3.5 | 12.2 | 0.00 | 0.00 | 0.00 | 85 | 1007.7 |
| 20260505083503 | 70 | 179 | 2.6 | 7.8 | 0.00 | 0.00 | 0.00 | 85 | 1007.7 |
| 20260505083010 | 70 | 153 | 1.7 | 7.8 | 0.00 | 0.00 | 0.00 | 85 | 1007.6 |
| 20260505082506 | 70 | 189 | 2.6 | 8.7 | 0.00 | 0.00 | 0.00 | 85 | 1007.8 |
| 20260505082006 | 70 | 117 | 2.6 | 8.7 | 0.00 | 0.00 | 0.00 | 85 | 1007.9 |
| 20260505081516 | 70 | 234 | 1.7 | 8.7 | 0.00 | 0.00 | 0.00 | 85 | 1008.0 |
| 20260505081007 | 70 | 195 | 3.5 | 9.6 | 0.00 | 0.00 | 0.00 | 85 | 1008.1 |
| 20260505080506 | 70 | 182 | 1.7 | 12.2 | 0.00 | 0.00 | 0.00 | 85 | 1008.0 |
| 20260505080009 | 70 | 158 | 2.6 | 12.2 | 0.00 | 0.00 | 0.00 | 85 | 1008.0 |
| 20260505075504 | 70 | 184 | 2.6 | 13.0 | 0.00 | 0.00 | 0.00 | 85 | 1007.9 |
| 20260505075004 | 70 | 148 | 3.5 | 13.0 | 0.00 | 0.00 | 0.00 | 85 | 1008.0 |
| 20260505074512 | 70 | 168 | 3.5 | 10.4 | 0.00 | 0.00 | 0.00 | 85 | 1008.0 |
| 20260505074004 | 70 | 146 | 2.6 | 10.4 | 0.00 | 0.00 | 0.00 | 85 | 1008.1 |
| 20260505073504 | 70 | 172 | 1.7 | 9.6 | 0.00 | 0.00 | 0.00 | 85 | 1008.1 |
| 20260505073012 | 70 | 177 | 3.5 | 9.6 | 0.00 | 0.00 | 0.00 | 85 | 1008.2 |
| 20260505072503 | 70 | 101 | 1.7 | 8.7 | 0.00 | 0.00 | 0.00 | 85 | 1008.2 |
| 20260505072010 | 70 | 161 | 2.6 | 8.7 | 0.00 | 0.00 | 0.00 | 85 | 1008.3 |
| 20260505071510 | 70 | 202 | 0.9 | 12.2 | 0.00 | 0.00 | 0.00 | 84 | 1008.4 |
| 20260505071007 | 70 | 152 | 3.5 | 12.2 | 0.00 | 0.00 | 0.00 | 84 | 1008.6 |
| 20260505070504 | 70 | 184 | 3.5 | 9.6 | 0.00 | 0.00 | 0.00 | 84 | 1008.7 |
| 20260505070013 | 70 | 213 | 1.7 | 10.4 | 0.00 | 0.00 | 0.00 | 84 | 1008.7 |
| 20260505065514 | 70 | 175 | 3.5 | 10.4 | 0.00 | 0.00 | 0.00 | 84 | 1008.7 |
| 20260505065006 | 70 | 212 | 4.3 | 9.6 | 0.00 | 0.00 | 0.00 | 84 | 1008.8 |
| 20260505064511 | 70 | 215 | 4.3 | 9.6 | 0.00 | 0.00 | 0.00 | 84 | 1008.8 |
| 20260505064014 | 70 | 226 | 1.7 | 9.6 | 0.00 | 0.00 | 0.00 | 84 | 1008.8 |
| 20260505063505 | 70 | 210 | 3.5 | 9.6 | 0.00 | 0.00 | 0.00 | 84 | 1008.8 |
| 20260505063014 | 70 | 124 | 2.6 | 8.7 | 0.00 | 0.00 | 0.00 | 84 | 1009.0 |
| 20260505062505 | 70 | 188 | 1.7 | 9.6 | 0.00 | 0.00 | 0.00 | 84 | 1009.0 |
| 20260505062007 | 70 | 210 | 1.7 | 9.6 | 0.00 | 0.00 | 0.00 | 83 | 1009.0 |
| 20260505061519 | 70 | 219 | 2.6 | 8.7 | 0.00 | 0.00 | 0.00 | 83 | 1009.0 |
| 20260505061007 | 71 | 177 | 1.7 | 7.0 | 0.00 | 0.00 | 0.00 | 83 | 1009.1 |
| 20260505060510 | 71 | 132 | 1.7 | 13.9 | 0.00 | 0.00 | 0.00 | 83 | 1009.2 |
| 20260505060014 | 71 | 223 | 4.3 | 13.9 | 0.00 | 0.00 | 0.00 | 83 | 1009.1 |
| 20260505055507 | 71 | 179 | 1.7 | 12.2 | 0.00 | 0.00 | 0.00 | 83 | 1009.1 |
| 20260505055007 | 71 | 164 | 3.5 | 12.2 | 0.00 | 0.00 | 0.00 | 83 | 1009.0 |
| 20260505054513 | 71 | 188 | 2.6 | 10.4 | 0.00 | 0.00 | 0.00 | 83 | 1009.2 |
| 20260505054011 | 71 | 210 | 2.6 | 9.6 | 0.00 | 0.00 | 0.00 | 83 | 1009.1 |
| 20260505053508 | 71 | 112 | 3.5 | 9.6 | 0.00 | 0.00 | 0.00 | 83 | 1009.0 |
| 20260505053019 | 71 | 215 | 1.7 | 7.8 | 0.00 | 0.00 | 0.00 | 83 | 1009.0 |
| 20260505052507 | 71 | 184 | 2.6 | 11.3 | 0.00 | 0.00 | 0.00 | 83 | 1009.1 |
| 20260505052006 | 71 | 149 | 1.7 | 11.3 | 0.00 | 0.00 | 0.00 | 83 | 1008.9 |
| 20260505051517 | 71 | 117 | 3.5 | 8.7 | 0.00 | 0.00 | 0.00 | 83 | 1009.2 |
| 20260505051004 | 71 | 170 | 2.6 | 8.7 | 0.00 | 0.00 | 0.00 | 83 | 1009.0 |
| 20260505050508 | 71 | 191 | 2.6 | 7.8 | 0.00 | 0.00 | 0.00 | 83 | 1009.0 |
| 20260505041518 | 72 | 188 | 3.5 | 6.1 | 0.00 | 0.00 | 0.00 | 80 | 1009.0 |
| 20260505041008 | 72 | 173 | 1.7 | 6.1 | 0.00 | 0.00 | 0.00 | 80 | 1009.1 |
| 20260505040510 | 72 | 181 | 2.6 | 8.7 | 0.00 | 0.00 | 0.00 | 80 | 1009.0 |
| 20260505040016 | 72 | 188 | 0.9 | 9.6 | 0.00 | 0.00 | 0.00 | 80 | 1008.9 |
| 20260505035507 | 72 | 140 | 3.5 | 9.6 | 0.00 | 0.00 | 0.00 | 79 | 1008.9 |
| 20260505035009 | 72 | 155 | 1.7 | 5.2 | 0.00 | 0.00 | 0.00 | 79 | 1009.0 |
| 20260505034524 | 72 | 184 | 1.7 | 6.1 | 0.00 | 0.00 | 0.00 | 79 | 1009.0 |
| 20260505034008 | 72 | 187 | 1.7 | 6.1 | 0.00 | 0.00 | 0.00 | 79 | 1008.9 |
| 20260505033516 | 73 | 146 | 1.7 | 6.1 | 0.00 | 0.00 | 0.00 | 79 | 1009.0 |
| 20260505033018 | 73 | 155 | 2.6 | 7.8 | 0.00 | 0.00 | 0.00 | 78 | 1009.0 |
| 20260505032507 | 73 | 155 | 1.7 | 7.8 | 0.00 | 0.00 | 0.00 | 78 | 1008.9 |
| 20260505032007 | 73 | 192 | 2.6 | 7.0 | 0.00 | 0.00 | 0.00 | 78 | 1008.9 |
| 20260505031518 | 73 | 186 | 2.6 | 7.0 | 0.00 | 0.00 | 0.00 | 77 | 1008.9 |
| 20260505031007 | 73 | 174 | 1.7 | 6.1 | 0.00 | 0.00 | 0.00 | 77 | 1008.9 |
| 20260505030507 | 73 | 188 | 1.7 | 5.2 | 0.00 | 0.00 | 0.00 | 76 | 1008.8 |
| 20260505030018 | 73 | 190 | 0.9 | 8.7 | 0.00 | 0.00 | 0.00 | 76 | 1008.8 |
| 20260505025506 | 73 | 222 | 1.7 | 8.7 | 0.00 | 0.00 | 0.00 | 75 | 1008.8 |